Location: Poughquag
(41.6090°N, 73.6820°W)
Time: 10:19:19
(UTC-05:00)

SR - Pass Details

Date: 11 December 2023
Orbit: 574 x 868 km, 66.7° (Epoch: 25 February)

Event Time Altitude Azimuth Distance (km) Brightness Sun altitude
Rises 11:37:59 0° 264° (W) 3,345 ? 25.3°
Reaches altitude 10° 11:41:25 10° 285° (WNW) 2,459 ? 25.4°
Maximum altitude 11:44:51 16° 323° (NW) 2,092 ? 25.4°
Drops below altitude 10° 11:48:23 10° 360° (N) 2,516 ? 25.4°
Sets 11:51:57 0° 21° (NNE) 3,462 ? 25.4°
